Weather in Savva

Russia / Republic of Mordovia     54°04′28″N   43°05′16″E
temp.,
°C
wind,
m/s
gust,
m/s
humid.,
%
clouds,
%
prec.,
mm/h
press.,
hPa
HPBL,
m
21 january, fri
fri2100:00−12s71690100 0.0 1014341
03:00−13s71688100 0.0 1014355
06:00−12s71687100 0.0 1012364
09:00−11s71786100 0.0 1012480
12:00−8sse91986100 0.0 1009619
15:00−7sse102093100 0.6 1007803
18:00−7sse81692100 0.6 1007635
21:00−6sse81694100 1.1 1006588
22 january, sat
sat2200:00−5s6129397 0.9 1007393
03:00−7s5119337 1.1 1008251
06:00−10sse5119418 0.0 1010223
09:00−10sse51293100 0.0 1012260
12:00−8s5129281 0.0 1013399
15:00−8sse5109266 0.0 1015344
18:00−10sse3895100 0.0 1016151
21:00−10sse3795100 0.0 1018166
23 january, sun
sun2300:00−12sse249664 0.0 102056
03:00−15sse3410092 0.0 102138
06:00−12sse34100100 0.0 102391
09:00−8sse3495100 0.1 1025180
12:00−7ese1293100 0.0 1027144
15:00−6ene2494100 0.0 1028111
18:00−7ene3895100 0.0 1030173
21:00−5ene4996100 0.1 1030260
24 january, mon
mon2400:00−4ene4996100 0.4 1031372
03:00−4e4893100 0.9 1032360
06:00−8e4991100 0.0 1032218
09:00−10e41087100 0.0 1033203
12:00−7e4987100 0.0 1033264
15:00−7e4988100 0.0 1033255
18:00−10e3893100 0.0 1033129
21:00−12ese3993100 0.0 1033121
25 january, tue
tue2500:00−11se41187100 0.0 1032201
03:00−12se41087100 0.0 1031175
06:00−12se41086100 0.0 1030174
09:00−13se31087100 0.0 1030179
12:00−9sse51284100 0.0 1029302
15:00−9sse41186100 0.0 1028278
18:00−12sse4109051 0.0 1028164
21:00−13sse410915 0.0 1028166